Essex, Connecticut, United States (06426)
Lat: 41.35N, Lon: 72.39W
Wx Zone: CTZ011
Local Info
Past Weather Observations for Today

NOTE: This archive is for the closest National Weather Service station to Essex. Information may differ from the station used for current weather conditions.

Time Weather Temperature Dewpoint Humidity Pressure Winds Precip Visibility
19:56
Overcast
50°F / 10°C 34°F / 1°C 54% 29.62 in
(1003 mb)
NW 20.7 mph
(NW 33 kph)
- 10SM
18:56
Overcast
52°F / 11°C 34°F / 1°C 50% 29.59 in
(1002 mb)
NW 18.4 mph
(NW 30 kph)
- 10SM
17:56
Overcast
54°F / 12°C 36°F / 2°C 51% 29.56 in
(1001 mb)
NW 18.4 mph
(NW 30 kph)
0.00 in
(0.00 mm)
10SM
16:56
Overcast
Light Rain
54°F / 12°C 39°F / 4°C 58% 29.53 in
(1000 mb)
NW 20.7 mph
(NW 33 kph)
0.00 in
(0.00 mm)
9SM
15:56
Partly Cloudy
57°F / 14°C 39°F / 4°C 51% 29.5 in
(999 mb)
NNW 24.2 mph
(NNW 39 kph)
- 10SM
14:56
Overcast
57°F / 14°C 39°F / 4°C 51% 29.47 in
(998 mb)
NNW 24.2 mph
(NNW 39 kph)
- 10SM
13:56
Overcast
54°F / 12°C 41°F / 5°C 63% 29.47 in
(998 mb)
NNW 24.2 mph
(NNW 39 kph)
0.00 in
(0.00 mm)
10SM
13:46
Overcast
54°F / 12°C 41°F / 5°C 63% 29.5 in
(999 mb)
NW 24.2 mph
(NW 39 kph)
0.00 in
(0.00 mm)
10SM
13:28
Mostly Cloudy
54°F / 12°C 43°F / 6°C 67% 29.47 in
(998 mb)
NW 19.6 mph
(NW 32 kph)
0.00 in
(0.00 mm)
10SM
12:56
Mostly Cloudy
Light Rain
54°F / 12°C 45°F / 7°C 72% 29.5 in
(999 mb)
NW 19.6 mph
(NW 32 kph)
0.00 in
(0.00 mm)
10SM
11:56
Partly Cloudy
52°F / 11°C 46°F / 8°C 82% 29.47 in
(998 mb)
NW 20.7 mph
(NW 33 kph)
- 10SM
10:56
Overcast
Light Rain
46°F / 8°C 43°F / 6°C 87% 29.5 in
(999 mb)
NW 16.1 mph
(NW 26 kph)
- 4SM
10:14
Overcast
Rain
46°F / 8°C 43°F / 6°C 87% 29.5 in
(999 mb)
NW 15 mph
(NW 24 kph)
0.00 in
(0.00 mm)
3SM
09:56
Overcast
Light Rain
48°F / 9°C 45°F / 7°C 87% 29.5 in
(999 mb)
NW 11.5 mph
(NW 19 kph)
0.00 in
(0.00 mm)
6SM
09:49
Overcast
Light Rain
48°F / 9°C 45°F / 7°C 87% 29.5 in
(999 mb)
NW 11.5 mph
(NW 19 kph)
0.00 in
(0.00 mm)
5SM
09:05
Overcast
Light Rain
50°F / 10°C 43°F / 6°C 76% 29.47 in
(998 mb)
WNW 13.8 mph
(WNW 22 kph)
0.00 in
(0.00 mm)
9SM
08:56
Overcast
Light Rain
52°F / 11°C 43°F / 6°C 72% 29.47 in
(998 mb)
NW 9.2 mph
(NW 15 kph)
0.00 in
(0.00 mm)
9SM
07:56
Mostly Cloudy
Light Rain
50°F / 10°C 43°F / 6°C 76% 29.47 in
(998 mb)
NNW 15 mph
(NNW 24 kph)
0.00 in
(0.00 mm)
9SM
06:56
Mostly Cloudy
50°F / 10°C 46°F / 8°C 88% 29.47 in
(998 mb)
NNW 11.5 mph
(NNW 19 kph)
0.00 in
(0.00 mm)
8SM
05:56
Overcast
Light Rain
48°F / 9°C 48°F / 9°C 100% 29.47 in
(998 mb)
Calm 0.00 in
(0.00 mm)
6SM
04:56
Overcast
Fog And Mist
46°F / 8°C 46°F / 8°C 100% 29.44 in
(997 mb)
Calm - 6SM
03:56
Mostly Cloudy
Fog And Mist
45°F / 7°C 45°F / 7°C 100% 29.44 in
(997 mb)
Calm - 5SM
03:50
Mostly Cloudy
Fog And Mist
45°F / 7°C 45°F / 7°C 100% 29.44 in
(997 mb)
Calm - 3SM
03:40
Mostly Cloudy
Fog And Mist
45°F / 7°C 45°F / 7°C 100% 29.47 in
(998 mb)
Calm - 1 3/4SM
03:20
Mostly Cloudy
Fog And Mist
45°F / 7°C 45°F / 7°C 100% 29.44 in
(997 mb)
Calm - 3SM
03:13
Mostly Cloudy
Fog And Mist
45°F / 7°C 45°F / 7°C 100% 29.47 in
(998 mb)
Calm - 1 3/4SM
03:03
Partly Cloudy
Fog And Mist
43°F / 6°C 43°F / 6°C 100% 29.47 in
(998 mb)
Calm - 6SM
02:56
Mostly Cloudy
Fog And Mist
43°F / 6°C 43°F / 6°C 100% 29.44 in
(997 mb)
Calm - 2 1/2SM
02:54
Mostly Cloudy
Fog And Mist
45°F / 7°C 45°F / 7°C 100% 29.44 in
(997 mb)
Calm - 1SM
02:11
Obscured
Fog
45°F / 7°C 45°F / 7°C 100% 29.47 in
(998 mb)
Calm - 1/4SM
01:56
Overcast
Fog
45°F / 7°C 45°F / 7°C 100% 29.47 in
(998 mb)
Calm - 1/2SM
01:39
Obscured
Fog
45°F / 7°C 45°F / 7°C 100% 29.47 in
(998 mb)
Calm - 1/4SM
01:24
Obscured
Fog
45°F / 7°C 45°F / 7°C 100% 29.47 in
(998 mb)
Calm - 1/2SM
01:10
Obscured
Fog
46°F / 8°C 46°F / 8°C 100% 29.47 in
(998 mb)
Calm - 1/4SM
01:03
Obscured
Fog
46°F / 8°C 45°F / 7°C 93% 29.47 in
(998 mb)
Calm - 1/2SM
00:56
Obscured
Fog
45°F / 7°C 45°F / 7°C 100% 29.47 in
(998 mb)
Calm - 1/4SM
00:48
Obscured
Fog And Mist
46°F / 8°C 46°F / 8°C 100% 29.47 in
(998 mb)
Calm - 3/4SM
00:37
Partly Cloudy
Fog And Mist
46°F / 8°C 46°F / 8°C 100% 29.5 in
(999 mb)
Calm - 1 1/2SM
00:23
Obscured
Fog And Mist
46°F / 8°C 46°F / 8°C 100% 29.5 in
(999 mb)
Calm - 3/4SM
00:20
Partly Cloudy
Fog And Mist
46°F / 8°C 46°F / 8°C 100% 29.5 in
(999 mb)
Calm - 1 1/2SM
Time Weather Temperature Dewpoint Humidity Pressure Winds Precip Visibility


Weather for websites

WeatherForYou.com, LLC is not responsible for any damages or problems caused by this service. Current weather conditions are obtained from the closest station including government and personal stations which may have varying degrees of accuracy. Weather forecasts are derived from the NOAA NDFD. Like all things, this site belongs to Jesus Christ... He just trusts me to maintain it. If you have any questions or comments email webmaster@weatherforyou.com

Copyright © 2014, WeatherForYou.com LLC. All rights reserved.